Location: Al Mulaqqa?ah
(24.1833°N, 32.8833°E)
Time: 03:34:11
(UTC+00:00)

Cosmos 1733 Rocket - Pass Details

Date: 26 September 2021
Orbit: 604 x 627 km, 82.5° (Epoch: 15 October)

Event Time Altitude Azimuth Distance (km) Brightness Sun altitude
Rises 15:52:51 0° 196° (SSW) 2,847 6.7 -3.6°
Reaches altitude 10° 15:55:07 10° 201° (SSW) 1,944 5.9 -4.1°
Maximum altitude 15:59:17 49° 277° (W) 783 4.2 -5.1°
Drops below altitude 10° 16:03:27 10° 352° (N) 1,948 5.7 -6.0°
Sets 16:05:43 0° 358° (N) 2,854 6.5 -6.6°
